Weather in Komarovo

Russia / Perm Krai     57°18′23″N   55°39′25″E
temp.,
°C
wind,
m/s
gust,
m/s
humid.,
%
clouds,
%
prec.,
mm/h
press.,
hPa
HPBL,
m
26 february, fri
fri2623:00−26se239616 0.0 102820
02:00−27se23930 0.0 102720
05:00−28se23940 0.0 102722
08:00−28se23941 0.0 102624
11:00−22sse369315 0.0 1025280
14:00−18sse478985 0.0 1024447
17:00−16sse488987 0.0 1023522
20:00−19sse4129399 0.0 1020350
27 february, sat
sat2723:00−19se4129273 0.0 1018307
02:00−18se5149266 0.0 1015439
05:00−17se6148983 0.0 1013533
08:00−17ese61486100 0.0 1009437
11:00−15ese61191100 0.3 1007461
14:00−13ese5990100 0.5 1006546
17:00−12e5989100 0.7 1006647
20:00−14e61190100 0.2 1006423
28 february, sun
sun2823:00−17e61290100 0.3 1007382
02:00−17e51190100 0.0 1006394
05:00−17ene51092100 0.1 1007403
08:00−18ene4109197 0.1 1007393
11:00−16ene5108997 0.1 1008466
14:00−14ene5888100 0.0 1008520
17:00−14ne5988100 0.1 1009570
20:00−17ne41092100 0.0 1011317
1 march, mon
mon123:00−19ne4109397 0.1 1014262
02:00−22ne37946 0.0 1015138
05:00−24ne35943 0.0 101884
08:00−25ne23940 0.0 101948
11:00−19ne25870 0.0 1020266
14:00−14nne23804 0.0 1020488
17:00−12nw238550 0.0 1020430
20:00−19w119982 0.0 101920
2 march, tue
tue223:00−20s239741 0.0 101824
02:00−21s36998 0.0 1016109
05:00−20s4109954 0.0 1014248
08:00−19s61295100 0.0 1011333
11:00−17ssw61295100 0.6 1009412
14:00−15ssw61094100 0.7 1007518
17:00−13ssw61094100 1.3 1005538
20:00−14ssw41095100 0.3 1004355